Back to catalog

STARLINK-37590

AliveCommunicationsVLEO
NORAD 69838·PAYLOAD·🇺🇸 United States

Launched Jul 5, 2026 from Cape Canaveral Space Force Station

Loading…

Next Passes (next 24 hours)

TLE

FreshSource: CelesTrak SupGP

Epoch: Sep 15, 2026, 04:11 UTC

1 69838C 26154V   26258.17479167  .00078137  00000+0  23083-2 0  2588
2 69838  53.1585 356.3422 0001173  93.9747 295.4638 15.34355283    16

Track STARLINK-37590 in real time with AllMySat

Download on the App Store